QPF
0.06 0.05 0.05 0.04 0.04 0.03 0.04 0.05 0.04 0.04 0.03 0.02 0.02 0.04 0.05 0.05 0.07 0.05 0.08 0.08 0.06 0.06 0.05 0.04 0.04 0.03 0.02 0.03 0.02 0.02 0.02 0.02 0.02 0.02 0.03 0.03 0.04 0.05
0.07 0.07 0.06 0.06 0.06 0.05 0.04 0.03 0.03 0.03 0.02 0.02 0.03 0.03 0.04 0.05 0.08 0.06 0.07 0.08 0.04 0.05 0.04 0.04 0.02 0.01 0.01 0.01 0.01 0.01 0.01 0.01 0.01 0.01 0.01 0.01 0.02 0.02
0.06 0.05 0.05 0.05 0.06 0.06 0.04 0.03 0.02 0.03 0.02 0.02 0.03 0.03 0.03 0.05 0.08 0.08 0.06 0.06 0.04 0.04 0.04 0.04 0.01 0.01 0.00 0.00 0.00 0.00 0.00 0.00 0.01 0.01 0.01 0.01 0.01 0.01
0.02 0.03 0.04 0.05 0.05 0.05 0.06 0.05 0.04 0.04 0.02 0.02 0.03 0.03 0.04 0.06 0.07 0.08 0.06 0.03 0.03 0.03 0.04 0.05 0.03 0.01 0.01 0.01 0.01 0.00 0.01 0.01 0.01 0.01 0.00 0.00 0.00 0.01
0.02 0.02 0.03 0.05 0.04 0.05 0.06 0.05 0.05 0.04 0.04 0.03 0.03 0.04 0.04 0.05 0.07 0.06 0.04 0.03 0.03 0.03 0.04 0.05 0.04 0.02 0.01 0.01 0.01 0.01 0.01 0.01 0.01 0.01 0.01 0.01 0.00 0.01
0.02 0.02 0.02 0.03 0.04 0.05 0.06 0.06 0.06 0.05 0.05 0.04 0.03 0.03 0.04 0.05 0.05 0.04 0.04 0.04 0.04 0.04 0.05 0.07 0.05 0.02 0.02 0.02 0.01 0.01 0.01 0.01 0.01 0.01 0.01 0.01 0.01 0.01
0.02 0.02 0.02 0.02 0.03 0.05 0.04 0.06 0.06 0.04 0.04 0.04 0.04 0.04 0.04 0.04 0.04 0.04 0.04 0.05 0.06 0.06 0.07 0.08 0.08 0.05 0.04 0.03 0.02 0.01 0.01 0.01 0.01 0.01 0.02 0.01 0.01 0.01
0.03 0.04 0.03 0.03 0.03 0.03 0.03 0.04 0.04 0.03 0.03 0.04 0.03 0.04 0.05 0.05 0.05 0.05 0.04 0.05 0.06 0.07 0.07 0.08 0.09 0.06 0.04 0.03 0.02 0.01 0.01 0.01 0.01 0.01 0.01 0.01 0.02 0.02
0.04 0.04 0.03 0.02 0.03 0.04 0.04 0.03 0.03 0.03 0.03 0.03 0.02 0.03 0.05 0.06 0.05 0.04 0.04 0.05 0.06 0.07 0.07 0.07 0.09 0.07 0.03 0.02 0.02 0.02 0.02 0.02 0.01 0.01 0.01 0.00 0.01 0.01
0.04 0.03 0.03 0.02 0.03 0.03 0.04 0.04 0.04 0.03 0.03 0.02 0.02 0.04 0.05 0.05 0.04 0.04 0.05 0.06 0.07 0.07 0.07 0.08 0.10 0.08 0.03 0.03 0.02 0.01 0.01 0.01 0.01 0.01 0.01 0.01 0.01 0.01
0.04 0.03 0.03 0.02 0.03 0.03 0.03 0.04 0.04 0.03 0.02 0.03 0.02 0.02 0.02 0.02 0.02 0.03 0.04 0.05 0.06 0.06 0.07 0.08 0.09 0.07 0.04 0.04 0.03 0.02 0.02 0.02 0.01 0.01 0.01 0.01 0.01 0.02
0.03 0.03 0.03 0.03 0.05 0.06 0.05 0.04 0.03 0.02 0.02 0.02 0.02 0.02 0.02 0.02 0.02 0.03 0.04 0.06 0.07 0.07 0.06 0.07 0.08 0.09 0.06 0.04 0.03 0.03 0.03 0.03 0.03 0.02 0.01 0.01 0.02 0.03
0.04 0.04 0.05 0.07 0.08 0.07 0.04 0.03 0.02 0.02 0.01 0.02 0.02 0.02 0.02 0.02 0.02 0.02 0.03 0.04 0.04 0.05 0.05 0.07 0.07 0.08 0.07 0.05 0.05 0.05 0.05 0.04 0.03 0.03 0.02 0.01 0.02 0.03
0.05 0.06 0.09 0.09 0.07 0.06 0.03 0.02 0.01 0.01 0.02 0.02 0.02 0.02 0.02 0.02 0.02 0.03 0.04 0.04 0.04 0.04 0.04 0.05 0.05 0.06 0.06 0.06 0.05 0.05 0.05 0.04 0.04 0.03 0.01 0.01 0.01 0.01
0.05 0.07 0.06 0.03 0.02 0.03 0.03 0.02 0.01 0.01 0.02 0.02 0.02 0.02 0.02 0.02 0.02 0.04 0.05 0.04 0.04 0.04 0.03 0.03 0.04 0.05 0.05 0.05 0.05 0.05 0.06 0.05 0.05 0.05 0.03 0.02 0.02 0.02
0.03 0.04 0.04 0.03 0.02 0.02 0.01 0.01 0.01 0.01 0.01 0.02 0.02 0.02 0.02 0.02 0.03 0.03 0.04 0.05 0.06 0.06 0.04 0.04 0.05 0.06 0.06 0.06 0.05 0.05 0.06 0.06 0.06 0.08 0.06 0.04 0.04 0.04
0.01 0.02 0.03 0.04 0.04 0.04 0.03 0.02 0.02 0.01 0.01 0.01 0.02 0.02 0.02 0.03 0.03 0.03 0.04 0.05 0.05 0.05 0.05 0.05 0.07 0.07 0.07 0.07 0.07 0.07 0.07 0.07 0.06 0.07 0.06 0.05 0.05 0.05
0.01 0.01 0.01 0.02 0.03 0.04 0.05 0.05 0.04 0.03 0.02 0.02 0.02 0.02 0.02 0.03 0.03 0.04 0.04 0.04 0.05 0.05 0.06 0.05 0.06 0.08 0.08 0.08 0.07 0.07 0.08 0.08 0.07 0.06 0.06 0.04 0.04 0.04
0.00 0.01 0.01 0.01 0.01 0.02 0.02 0.03 0.03 0.03 0.04 0.03 0.03 0.02 0.02 0.03 0.04 0.04 0.04 0.05 0.06 0.07 0.07 0.06 0.06 0.08 0.11 0.11 0.09 0.07 0.07 0.06 0.06 0.05 0.05 0.05 0.04 0.04
0.00 0.00 0.00 0.01 0.01 0.02 0.02 0.01 0.01 0.01 0.02 0.02 0.02 0.03 0.03 0.05 0.06 0.05 0.05 0.05 0.05 0.07 0.07 0.07 0.06 0.07 0.09 0.11 0.10 0.06 0.05 0.05 0.05 0.06 0.05 0.05 0.05 0.06
0.00 0.00 0.00 0.01 0.01 0.01 0.02 0.02 0.02 0.01 0.01 0.02 0.02 0.03 0.04 0.05 0.05 0.05 0.05 0.05 0.06 0.06 0.05 0.05 0.06 0.07 0.08 0.09 0.08 0.06 0.04 0.04 0.04 0.04 0.04 0.05 0.06 0.06
0.01 0.01 0.01 0.01 0.01 0.01 0.02 0.02 0.02 0.02 0.02 0.03 0.03 0.03 0.03 0.04 0.05 0.05 0.05 0.06 0.07 0.08 0.07 0.06 0.05 0.05 0.06 0.07 0.07 0.06 0.05 0.04 0.04 0.04 0.05 0.04 0.05 0.06
0.01 0.01 0.01 0.01 0.01 0.02 0.02 0.02 0.02 0.02 0.02 0.02 0.02 0.03 0.03 0.04 0.05 0.07 0.07 0.06 0.07 0.06 0.06 0.05 0.05 0.05 0.06 0.07 0.07 0.06 0.05 0.04 0.04 0.04 0.05 0.05 0.04 0.03
MSLP
1014.91 1015.11 1015.28 1015.45 1015.59 1015.70 1015.80 1015.87 1015.95 1016.03 1016.13 1016.27 1016.47 1016.72 1017.04 1017.42 1017.86 1018.33 1018.82 1019.31 1019.78 1020.21 1020.59 1020.91 1021.18 1021.39 1021.56 1021.70 1021.83 1021.95 1022.08 1022.22 1022.38 1022.54 1022.71 1022.87 1023.02 1023.14
1014.04 1014.23 1014.41 1014.58 1014.74 1014.88 1015.01 1015.12 1015.22 1015.33 1015.46 1015.62 1015.82 1016.08 1016.41 1016.79 1017.23 1017.72 1018.23 1018.76 1019.28 1019.77 1020.21 1020.61 1020.96 1021.25 1021.49 1021.69 1021.86 1022.02 1022.17 1022.32 1022.47 1022.62 1022.76 1022.90 1023.03 1023.14
1013.20 1013.36 1013.53 1013.70 1013.87 1014.03 1014.19 1014.33 1014.46 1014.60 1014.75 1014.93 1015.15 1015.41 1015.73 1016.11 1016.55 1017.04 1017.56 1018.10 1018.65 1019.19 1019.70 1020.16 1020.58 1020.95 1021.27 1021.55 1021.79 1022.00 1022.19 1022.36 1022.52 1022.67 1022.81 1022.93 1023.04 1023.13
1012.40 1012.53 1012.68 1012.84 1013.01 1013.19 1013.36 1013.52 1013.69 1013.85 1014.02 1014.21 1014.43 1014.69 1015.01 1015.38 1015.80 1016.28 1016.80 1017.35 1017.91 1018.47 1019.01 1019.53 1020.01 1020.45 1020.84 1021.20 1021.52 1021.81 1022.06 1022.28 1022.48 1022.65 1022.79 1022.92 1023.02 1023.10
1011.66 1011.76 1011.88 1012.03 1012.19 1012.37 1012.54 1012.72 1012.89 1013.06 1013.24 1013.44 1013.66 1013.91 1014.22 1014.57 1014.98 1015.44 1015.93 1016.47 1017.02 1017.58 1018.14 1018.68 1019.20 1019.69 1020.16 1020.59 1021.00 1021.37 1021.71 1022.01 1022.27 1022.49 1022.68 1022.83 1022.95 1023.05
1010.99 1011.06 1011.15 1011.28 1011.42 1011.58 1011.74 1011.91 1012.07 1012.24 1012.41 1012.59 1012.80 1013.05 1013.34 1013.67 1014.06 1014.49 1014.96 1015.46 1015.99 1016.53 1017.07 1017.61 1018.15 1018.68 1019.19 1019.69 1020.18 1020.64 1021.08 1021.48 1021.85 1022.16 1022.43 1022.64 1022.82 1022.96
1010.39 1010.43 1010.50 1010.59 1010.70 1010.83 1010.97 1011.10 1011.23 1011.37 1011.51 1011.67 1011.86 1012.08 1012.35 1012.67 1013.03 1013.43 1013.87 1014.34 1014.83 1015.33 1015.84 1016.36 1016.88 1017.42 1017.96 1018.52 1019.08 1019.64 1020.18 1020.71 1021.20 1021.64 1022.02 1022.34 1022.60 1022.81
1009.87 1009.87 1009.91 1009.97 1010.05 1010.13 1010.21 1010.28 1010.36 1010.44 1010.53 1010.65 1010.80 1011.00 1011.25 1011.55 1011.89 1012.27 1012.69 1013.12 1013.56 1014.02 1014.48 1014.96 1015.46 1015.98 1016.54 1017.13 1017.75 1018.40 1019.06 1019.71 1020.34 1020.93 1021.45 1021.90 1022.28 1022.59
1009.42 1009.40 1009.40 1009.42 1009.44 1009.45 1009.46 1009.46 1009.45 1009.45 1009.48 1009.54 1009.65 1009.82 1010.04 1010.33 1010.66 1011.03 1011.43 1011.83 1012.25 1012.66 1013.08 1013.51 1013.97 1014.47 1015.02 1015.63 1016.30 1017.02 1017.78 1018.56 1019.33 1020.06 1020.73 1021.33 1021.84 1022.26
1009.06 1009.01 1008.97 1008.93 1008.87 1008.81 1008.72 1008.62 1008.51 1008.42 1008.36 1008.35 1008.41 1008.55 1008.76 1009.03 1009.37 1009.74 1010.14 1010.54 1010.93 1011.32 1011.71 1012.10 1012.52 1012.99 1013.53 1014.14 1014.84 1015.62 1016.45 1017.33 1018.21 1019.07 1019.88 1020.60 1021.23 1021.77
1008.78 1008.69 1008.59 1008.48 1008.34 1008.18 1007.98 1007.77 1007.55 1007.36 1007.21 1007.13 1007.13 1007.24 1007.43 1007.71 1008.06 1008.45 1008.86 1009.28 1009.68 1010.06 1010.43 1010.80 1011.20 1011.65 1012.16 1012.77 1013.48 1014.28 1015.16 1016.10 1017.06 1018.00 1018.90 1019.73 1020.46 1021.08
1008.57 1008.42 1008.26 1008.07 1007.84 1007.56 1007.25 1006.93 1006.60 1006.30 1006.06 1005.91 1005.87 1005.94 1006.12 1006.41 1006.78 1007.20 1007.64 1008.09 1008.51 1008.91 1009.29 1009.66 1010.05 1010.48 1010.99 1011.58 1012.28 1013.08 1013.97 1014.92 1015.91 1016.90 1017.84 1018.72 1019.50 1020.18
1008.40 1008.19 1007.95 1007.67 1007.34 1006.96 1006.55 1006.11 1005.68 1005.29 1004.97 1004.75 1004.66 1004.71 1004.88 1005.18 1005.57 1006.02 1006.50 1006.98 1007.44 1007.88 1008.28 1008.68 1009.08 1009.51 1010.01 1010.59 1011.27 1012.04 1012.91 1013.84 1014.81 1015.78 1016.72 1017.60 1018.39 1019.08
1008.24 1007.96 1007.64 1007.28 1006.86 1006.39 1005.87 1005.35 1004.83 1004.36 1003.98 1003.71 1003.57 1003.59 1003.75 1004.05 1004.45 1004.92 1005.43 1005.95 1006.46 1006.94 1007.39 1007.81 1008.24 1008.70 1009.20 1009.77 1010.42 1011.16 1011.98 1012.86 1013.77 1014.68 1015.57 1016.40 1017.16 1017.84
1008.05 1007.71 1007.32 1006.87 1006.38 1005.83 1005.25 1004.66 1004.08 1003.56 1003.12 1002.81 1002.64 1002.63 1002.77 1003.05 1003.44 1003.92 1004.44 1004.99 1005.53 1006.05 1006.54 1007.02 1007.49 1007.97 1008.49 1009.06 1009.70 1010.40 1011.16 1011.97 1012.80 1013.63 1014.44 1015.20 1015.90 1016.54
1007.81 1007.40 1006.96 1006.46 1005.92 1005.32 1004.70 1004.07 1003.45 1002.90 1002.43 1002.08 1001.88 1001.83 1001.93 1002.18 1002.54 1003.00 1003.52 1004.06 1004.62 1005.17 1005.71 1006.23 1006.74 1007.27 1007.82 1008.40 1009.03 1009.70 1010.41 1011.15 1011.90 1012.64 1013.36 1014.05 1014.68 1015.27
1007.48 1007.05 1006.56 1006.04 1005.47 1004.86 1004.22 1003.58 1002.96 1002.39 1001.91 1001.54 1001.30 1001.21 1001.26 1001.45 1001.75 1002.16 1002.64 1003.16 1003.71 1004.27 1004.83 1005.39 1005.96 1006.53 1007.12 1007.73 1008.36 1009.03 1009.70 1010.39 1011.08 1011.74 1012.39 1013.00 1013.58 1014.13
1007.08 1006.63 1006.14 1005.61 1005.04 1004.44 1003.82 1003.20 1002.59 1002.03 1001.54 1001.15 1000.88 1000.73 1000.72 1000.83 1001.06 1001.39 1001.80 1002.28 1002.80 1003.34 1003.92 1004.50 1005.11 1005.72 1006.36 1007.01 1007.67 1008.34 1009.01 1009.67 1010.32 1010.94 1011.54 1012.10 1012.64 1013.17
1006.62 1006.17 1005.69 1005.18 1004.64 1004.07 1003.48 1002.89 1002.32 1001.78 1001.30 1000.89 1000.58 1000.38 1000.29 1000.32 1000.46 1000.70 1001.03 1001.43 1001.90 1002.42 1002.98 1003.59 1004.22 1004.88 1005.56 1006.25 1006.95 1007.65 1008.33 1008.99 1009.63 1010.24 1010.81 1011.36 1011.89 1012.40
1006.12 1005.69 1005.23 1004.75 1004.25 1003.73 1003.19 1002.65 1002.11 1001.59 1001.12 1000.70 1000.36 1000.11 999.95 999.89 999.94 1000.08 1000.32 1000.65 1001.06 1001.54 1002.09 1002.69 1003.35 1004.04 1004.75 1005.49 1006.23 1006.96 1007.67 1008.35 1009.00 1009.61 1010.19 1010.74 1011.28 1011.81
1005.61 1005.20 1004.77 1004.33 1003.87 1003.40 1002.91 1002.42 1001.92 1001.44 1000.98 1000.55 1000.19 999.89 999.66 999.53 999.50 999.56 999.72 999.97 1000.33 1000.77 1001.30 1001.90 1002.56 1003.27 1004.01 1004.78 1005.55 1006.31 1007.05 1007.75 1008.42 1009.06 1009.65 1010.22 1010.78 1011.32
1005.11 1004.72 1004.32 1003.91 1003.50 1003.08 1002.64 1002.19 1001.73 1001.27 1000.83 1000.40 1000.02 999.69 999.42 999.23 999.13 999.13 999.23 999.44 999.75 1000.16 1000.67 1001.26 1001.92 1002.63 1003.39 1004.17 1004.96 1005.74 1006.49 1007.22 1007.90 1008.55 1009.17 1009.75 1010.32 1010.89
1004.64 1004.26 1003.89 1003.51 1003.14 1002.75 1002.36 1001.95 1001.52 1001.09 1000.66 1000.24 999.85 999.50 999.21 998.99 998.85 998.82 998.89 999.06 999.35 999.75 1000.24 1000.82 1001.47 1002.18 1002.93 1003.71 1004.50 1005.27 1006.03 1006.75 1007.44 1008.09 1008.71 1009.31 1009.88 1010.45
Thickness
5748 5745 5743 5743 5743 5742 5739 5735 5729 5724 5723 5725 5725 5724 5722 5720 5718 5717 5716 5712 5709 5707 5705 5704 5702 5701 5700 5698 5697 5697 5697 5696 5695 5695 5695 5695 5695 5695
5742 5740 5738 5739 5737 5737 5735 5734 5731 5726 5722 5723 5721 5720 5718 5717 5714 5713 5711 5708 5705 5702 5700 5699 5697 5696 5695 5693 5692 5692 5691 5691 5690 5690 5689 5690 5690 5690
5738 5736 5733 5733 5732 5732 5730 5729 5726 5724 5718 5718 5718 5716 5712 5710 5709 5708 5707 5705 5704 5699 5697 5695 5693 5692 5691 5689 5688 5687 5686 5686 5685 5685 5684 5684 5685 5685
5733 5731 5729 5729 5726 5725 5723 5722 5720 5718 5714 5710 5710 5710 5707 5706 5704 5703 5704 5703 5701 5697 5694 5692 5691 5689 5687 5685 5684 5682 5681 5680 5680 5680 5679 5679 5679 5679
5730 5727 5725 5723 5720 5719 5717 5716 5715 5714 5710 5707 5706 5705 5703 5702 5700 5699 5700 5698 5698 5695 5692 5690 5688 5686 5684 5682 5680 5678 5677 5676 5675 5674 5674 5674 5674 5674
5726 5723 5721 5718 5715 5713 5712 5710 5709 5707 5704 5703 5702 5701 5698 5697 5695 5694 5693 5693 5692 5693 5690 5688 5685 5682 5680 5678 5676 5674 5672 5671 5670 5670 5669 5669 5669 5669
5721 5719 5717 5713 5710 5707 5708 5705 5703 5702 5701 5699 5697 5696 5694 5691 5690 5690 5688 5688 5687 5687 5686 5685 5683 5680 5678 5675 5672 5670 5668 5667 5666 5665 5664 5664 5664 5664
5715 5713 5712 5709 5704 5701 5699 5697 5696 5695 5694 5693 5693 5691 5689 5688 5686 5685 5683 5681 5679 5682 5680 5679 5679 5677 5676 5674 5671 5667 5665 5663 5662 5661 5660 5659 5659 5659
5710 5708 5708 5707 5701 5699 5696 5692 5691 5689 5687 5687 5687 5686 5685 5684 5681 5680 5677 5676 5675 5677 5673 5673 5674 5673 5673 5671 5667 5664 5661 5659 5658 5656 5655 5655 5655 5654
5706 5703 5700 5699 5697 5693 5692 5690 5689 5687 5684 5682 5682 5682 5682 5679 5677 5676 5674 5672 5671 5671 5670 5668 5670 5669 5670 5666 5663 5660 5657 5655 5654 5652 5651 5651 5650 5650
5700 5697 5694 5692 5688 5684 5684 5683 5681 5681 5679 5677 5676 5675 5673 5672 5670 5670 5668 5666 5665 5666 5666 5664 5664 5664 5664 5662 5660 5657 5654 5652 5650 5649 5647 5647 5646 5645
5694 5692 5687 5683 5679 5676 5676 5675 5673 5673 5673 5672 5670 5669 5669 5667 5664 5663 5664 5661 5660 5660 5662 5659 5659 5658 5657 5659 5658 5655 5652 5650 5648 5646 5644 5643 5642 5643
5687 5686 5683 5674 5670 5668 5667 5668 5666 5664 5666 5666 5666 5665 5665 5663 5662 5660 5659 5658 5656 5656 5658 5654 5654 5653 5652 5652 5653 5652 5651 5649 5647 5644 5642 5640 5639 5639
5679 5678 5674 5666 5662 5659 5659 5658 5656 5655 5659 5660 5659 5659 5658 5658 5657 5656 5653 5652 5651 5651 5650 5648 5647 5646 5645 5645 5645 5647 5647 5646 5646 5645 5644 5640 5637 5636
5671 5666 5661 5658 5655 5655 5652 5651 5650 5653 5653 5652 5651 5651 5652 5652 5651 5649 5648 5646 5645 5645 5645 5643 5642 5642 5641 5640 5640 5641 5641 5641 5642 5641 5640 5639 5637 5636
5662 5658 5653 5651 5650 5648 5648 5648 5648 5649 5648 5646 5645 5645 5645 5645 5644 5644 5642 5642 5640 5641 5640 5638 5637 5636 5636 5635 5635 5636 5637 5636 5637 5636 5636 5636 5636 5635
5653 5653 5652 5650 5648 5647 5646 5645 5644 5643 5641 5640 5639 5638 5637 5637 5636 5636 5635 5635 5634 5634 5634 5633 5633 5631 5630 5630 5630 5631 5631 5632 5632 5631 5630 5631 5632 5632
5646 5649 5648 5646 5643 5642 5640 5639 5637 5636 5635 5634 5632 5631 5630 5629 5629 5629 5628 5628 5628 5628 5627 5627 5626 5625 5625 5626 5624 5625 5626 5627 5626 5625 5625 5625 5626 5628
5643 5645 5643 5640 5638 5636 5634 5632 5631 5629 5627 5627 5625 5624 5623 5623 5623 5622 5622 5621 5622 5622 5621 5621 5619 5618 5617 5619 5620 5619 5620 5621 5620 5620 5619 5620 5621 5622
5641 5639 5637 5635 5633 5630 5628 5626 5624 5622 5620 5618 5617 5616 5616 5615 5615 5615 5615 5614 5615 5616 5616 5616 5615 5613 5613 5614 5615 5615 5613 5615 5615 5615 5615 5615 5616 5615
5636 5633 5631 5629 5627 5625 5622 5620 5617 5615 5613 5612 5611 5609 5609 5609 5609 5610 5611 5608 5608 5611 5611 5612 5611 5608 5609 5609 5610 5611 5611 5608 5609 5609 5610 5610 5610 5611
5630 5628 5626 5624 5621 5619 5616 5613 5612 5610 5608 5606 5606 5605 5604 5604 5605 5604 5605 5606 5606 5607 5607 5608 5607 5607 5606 5605 5605 5606 5606 5605 5604 5603 5603 5604 5606 5607
5623 5621 5619 5617 5615 5612 5610 5608 5606 5605 5603 5602 5601 5600 5599 5599 5600 5600 5599 5600 5601 5601 5602 5602 5603 5602 5602 5602 5601 5602 5601 5601 5601 5601 5600 5599 5598 5597